EW5945 Weather Reports


Display with metric or nautical units.
time (UTC)temp
F
wind
direction
speed
MPH
gust
MPH
rain 1hr
in
rain 24hr
in
rain mn
in
humidity
%
barometer
mb
20260901023838 77 334 0.0 0.0 0.00 0.00 0.00 98 1019.6
20260901023341 77 333 0.0 0.0 0.00 0.00 0.00 97 1019.3
20260901022839 77 334 0.0 0.0 0.00 0.00 0.00 97 1019.3
20260901022342 77 333 0.0 0.0 0.00 0.00 0.00 97 1019.3
20260901021839 77 333 0.0 0.0 0.00 0.00 0.00 97 1019.3
20260901021340 77 333 0.0 0.0 0.00 0.00 0.00 97 1019.3
20260901020838 77 334 0.0 0.0 0.00 0.00 0.00 96 1019.3
20260901020338 77 334 0.0 0.0 0.00 0.00 0.00 96 1019.3
20260901015839 77 334 0.0 0.0 0.00 0.00 0.00 96 1019.3
20260901015339 77 335 0.0 0.0 0.00 0.00 0.00 96 1019.3
20260901014838 77 334 0.0 0.0 0.00 0.00 0.00 96 1019.3
20260901014338 78 337 0.0 0.0 0.00 0.00 0.00 95 1019.0
20260901013839 78 336 0.0 0.0 0.00 0.00 0.00 95 1019.0
20260901013339 78 337 0.0 0.0 0.00 0.00 0.00 95 1019.0
20260901012838 78 335 0.0 0.0 0.00 0.00 0.00 95 1019.0
20260901012339 78 345 0.0 0.0 0.00 0.00 0.00 94 1019.0
20260901011839 78 345 0.0 0.0 0.00 0.00 0.00 94 1019.0
20260901011339 78 347 0.0 0.0 0.00 0.00 0.00 94 1019.0
20260901010839 78 345 0.0 0.0 0.00 0.00 0.00 94 1019.0
20260901010339 79 331 0.0 0.0 0.00 0.00 0.00 93 1019.0
20260901005838 79 331 0.0 0.0 0.00 0.00 0.00 93 1019.0
20260901005339 79 333 0.0 0.0 0.00 0.00 0.00 92 1019.0
20260901004838 79 329 0.0 0.0 0.00 0.00 0.00 92 1018.6
20260901004338 79 334 0.0 0.0 0.00 0.00 0.00 92 1018.6
20260901003838 79 331 0.0 0.0 0.00 0.00 0.00 91 1018.6
20260901003339 80 286 0.0 0.0 0.00 0.00 0.00 91 1018.6
20260901002841 80 280 0.0 0.0 0.00 0.00 0.00 90 1018.6
20260901002338 80 278 0.0 0.0 0.00 0.00 0.00 90 1018.6
20260901001843 80 322 0.0 0.0 0.00 0.00 0.00 89 1018.6
20260901001339 80 342 0.0 0.0 0.00 0.00 0.00 89 1018.6
20260901000838 80 348 0.0 0.0 0.00 0.00 0.00 88 1018.6
20260901000338 81 351 0.0 0.0 0.00 0.00 0.00 88 1018.6
20260831235839 81 325 0.0 0.0 0.00 0.00 0.00 87 1018.6
20260831235339 81 23 0.0 0.0 0.00 0.00 0.00 87 1018.6
20260831234839 81 297 0.0 0.0 0.00 0.00 0.00 86 1018.6
20260831234340 82 342 0.0 2.0 0.00 0.00 0.00 86 1018.6
20260831233839 82 291 0.0 0.0 0.00 0.00 0.00 85 1018.6
20260831233338 82 245 0.0 0.0 0.00 0.00 0.00 85 1018.6
20260831232838 82 258 0.0 0.0 0.00 0.00 0.00 84 1018.6
20260831232343 83 273 0.0 0.0 0.00 0.00 0.00 84 1018.6
20260831231838 83 292 0.0 0.0 0.00 0.00 0.00 84 1018.6
20260831231338 83 322 0.0 3.0 0.00 0.00 0.00 83 1018.6
20260831230838 83 264 0.0 2.0 0.00 0.00 0.00 83 1018.6
20260831230338 84 229 2.0 3.0 0.00 0.00 0.00 82 1018.3
20260831225839 84 81 2.0 2.0 0.00 0.00 0.00 82 1018.3
20260831225339 85 307 2.0 2.0 0.00 0.00 0.00 81 1018.3
20260831224838 85 62 2.0 3.0 0.00 0.00 0.00 81 1018.3
20260831224339 85 89 2.0 2.0 0.00 0.00 0.00 81 1018.3
20260831223838 85 330 0.0 2.0 0.00 0.00 0.00 81 1018.3
20260831223338 85 358 0.0 2.0 0.00 0.00 0.00 80 1018.3
20260831222839 85 326 0.0 0.0 0.00 0.00 0.00 80 1018.3
20260831222339 85 173 0.0 0.0 0.00 0.00 0.00 80 1018.3
20260831221839 86 130 3.0 3.0 0.00 0.00 0.00 79 1018.3
20260831221338 87 161 2.0 2.0 0.00 0.00 0.00 80 1018.3
20260831220838 87 316 2.0 2.0 0.00 0.00 0.00 79 1018.3
20260831220339 87 313 0.0 2.0 0.00 0.00 0.00 78 1018.3
20260831215839 88 265 0.0 2.0 0.00 0.00 0.00 77 1018.3
20260831215338 88 127 2.0 2.0 0.00 0.00 0.00 78 1018.3
20260831214839 88 334 2.0 3.0 0.00 0.00 0.00 78 1018.3
20260831214338 89 210 3.0 5.0 0.00 0.00 0.00 76 1018.3
20260831213838 88 249 2.0 2.0 0.00 0.00 0.00 78 1018.3
20260831213339 88 227 2.0 3.0 0.00 0.00 0.00 78 1018.3
20260831212838 88 242 2.0 2.0 0.00 0.00 0.00 78 1018.3
20260831212339 88 220 2.0 2.0 0.00 0.00 0.00 76 1018.3
20260831211838 89 192 6.0 7.0 0.00 0.00 0.00 75 1017.9
20260831211340 88 225 2.0 2.0 0.00 0.00 0.00 78 1017.9
20260831210839 88 301 2.0 2.0 0.00 0.00 0.00 78 1017.9
20260831210339 89 360 0.0 2.0 0.00 0.00 0.00 76 1017.9
20260831205839 89 293 2.0 2.0 0.00 0.00 0.00 78 1017.9
20260831205342 88 129 2.0 2.0 0.00 0.00 0.00 77 1017.9
20260831204839 88 297 0.0 2.0 0.00 0.00 0.00 76 1017.9
20260831204339 88 41 0.0 2.0 0.00 0.00 0.00 77 1017.9
20260831203839 89 281 0.0 0.0 0.00 0.00 0.00 74 1017.9
20260831203339 90 316 0.0 0.0 0.00 0.00 0.00 71 1017.9
20260831202839 90 280 0.0 0.0 0.00 0.00 0.00 68 1018.3
20260831202338 90 332 0.0 2.0 0.00 0.00 0.00 68 1018.3
20260831201839 89 308 0.0 0.0 0.00 0.00 0.00 72 1018.3
20260831201338 91 293 3.0 5.0 0.00 0.00 0.00 70 1018.3
20260831200839 91 31 2.0 3.0 0.00 0.00 0.00 69 1018.3
20260831200008 89 89 2.0 2.0 0.00 0.00 0.00 69 1018.3
20260831195339 91 314 0.0 2.0 0.00 0.00 0.00 68 1018.3
20260831194838 91 8 3.0 3.0 0.00 0.00 0.00 65 1018.3
20260831194338 89 352 3.0 3.0 0.00 0.00 0.00 71 1018.3
20260831193839 89 5 2.0 2.0 0.00 0.00 0.00 70 1018.3
20260831193338 89 338 2.0 2.0 0.00 0.00 0.00 73 1018.6
20260831192841 87 292 0.0 2.0 0.00 0.00 0.00 76 1018.6
20260831192338 87 281 0.0 0.0 0.00 0.00 0.00 76 1018.6
20260831191838 88 4 0.0 0.0 0.00 0.00 0.00 73 1018.6
20260831191339 89 320 0.0 2.0 0.00 0.00 0.00 75 1019.0
20260831190840 88 332 0.0 2.0 0.00 0.00 0.00 75 1019.0
20260831190338 88 307 3.0 3.0 0.00 0.00 0.00 79 1019.0
20260831185838 90 303 2.0 2.0 0.00 0.00 0.00 71 1019.0
20260831185339 90 13 2.0 3.0 0.00 0.00 0.00 69 1019.0
20260831184839 90 273 2.0 2.0 0.00 0.00 0.00 68 1019.0
20260831184339 89 336 3.0 3.0 0.00 0.00 0.00 72 1019.3
20260831183839 88 27 2.0 2.0 0.00 0.00 0.00 73 1019.3
20260831183340 89 69 3.0 3.0 0.00 0.00 0.00 71 1019.3
20260831182840 88 17 3.0 3.0 0.00 0.00 0.00 72 1019.3
20260831182339 92 242 2.0 3.0 0.00 0.00 0.00 67 1019.3
20260831181839 90 232 2.0 3.0 0.00 0.00 0.00 68 1019.3
20260831181338 90 262 3.0 3.0 0.00 0.00 0.00 71 1019.6
20260831180838 88 26 2.0 2.0 0.00 0.00 0.00 75 1019.6
20260831180342 89 285 0.0 2.0 0.00 0.00 0.00 70 1019.6
20260831175839 89 307 0.0 0.0 0.00 0.00 0.00 69 1019.6
20260831175339 90 275 3.0 3.0 0.00 0.00 0.00 72 1019.6
20260831174839 89 347 3.0 3.0 0.00 0.00 0.00 70 1019.6
20260831174339 89 333 3.0 3.0 0.00 0.00 0.00 71 1019.6
20260831173838 89 307 5.0 5.0 0.00 0.00 0.00 75 1020.0
20260831173339 89 44 3.0 5.0 0.00 0.00 0.00 73 1020.0
20260831172839 89 305 3.0 5.0 0.00 0.00 0.00 73 1020.0
20260831172338 88 244 2.0 2.0 0.00 0.00 0.00 75 1020.0
20260831171841 88 122 2.0 5.0 0.00 0.00 0.00 76 1020.0
20260831171338 88 292 0.0 0.0 0.00 0.00 0.00 75 1020.0
20260831170840 88 260 3.0 5.0 0.00 0.00 0.00 76 1020.0
20260831170338 87 67 2.0 2.0 0.00 0.00 0.00 75 1020.0
20260831165839 88 288 2.0 2.0 0.00 0.00 0.00 75 1020.0
20260831165339 86 269 2.0 2.0 0.00 0.00 0.00 81 1020.0
20260831164840 87 46 0.0 2.0 0.00 0.00 0.00 75 1020.3
20260831164339 87 308 2.0 3.0 0.00 0.00 0.00 76 1020.3
20260831163841 86 269 2.0 2.0 0.00 0.00 0.00 78 1020.3
20260831163339 86 27 2.0 3.0 0.00 0.00 0.00 77 1020.3
20260831162839 86 40 3.0 3.0 0.00 0.00 0.00 80 1020.3
20260831162339 86 32 5.0 5.0 0.00 0.00 0.00 79 1020.3
20260831161839 85 353 5.0 5.0 0.00 0.00 0.00 81 1020.3
20260831161338 85 276 0.0 3.0 0.00 0.00 0.00 80 1020.7
20260831160839 84 1 3.0 3.0 0.00 0.00 0.00 81 1020.7
20260831160339 84 76 3.0 5.0 0.00 0.00 0.00 81 1020.7
20260831155839 84 357 0.0 0.0 0.00 0.00 0.00 82 1020.7
20260831155338 84 309 2.0 3.0 0.00 0.00 0.00 82 1020.7
20260831154839 84 327 2.0 2.0 0.00 0.00 0.00 85 1020.7
20260831154340 84 12 2.0 5.0 0.00 0.00 0.00 82 1020.7
20260831153839 84 39 2.0 3.0 0.00 0.00 0.00 83 1020.7
20260831153338 84 23 3.0 7.0 0.00 0.00 0.00 81 1020.3
20260831152838 84 108 3.0 3.0 0.00 0.00 0.00 83 1020.3
20260831152339 84 19 3.0 5.0 0.00 0.00 0.00 84 1020.3
20260831151839 83 286 2.0 3.0 0.00 0.00 0.00 84 1020.3
20260831151338 83 322 5.0 5.0 0.00 0.00 0.00 85 1020.3
20260831150838 83 44 5.0 5.0 0.00 0.00 0.00 84 1020.3
20260831150339 83 31 6.0 7.0 0.00 0.00 0.00 85 1020.3
20260831145841 83 304 3.0 3.0 0.00 0.00 0.00 87 1020.3
20260831145340 82 2 2.0 2.0 0.00 0.00 0.00 85 1020.3
20260831144840 81 107 3.0 3.0 0.00 0.00 0.00 87 1020.3
20260831144339 80 246 0.0 0.0 0.00 0.00 0.00 92 1020.3
20260831143841 80 37 3.0 3.0 0.00 0.00 0.00 93 1020.3
20260831143339 79 17 3.0 9.0 0.00 0.00 0.00 93 1020.3
20260831142838 79 45 3.0 3.0 0.00 0.00 0.00 95 1020.3
20260831142339 78 22 5.0 5.0 0.00 0.00 0.00 97 1020.3
20260831141838 78 30 3.0 3.0 0.00 0.00 0.00 98 1020.3
20260831141338 77 14 0.0 2.0 0.00 0.00 0.00 99 1020.3
20260831140839 77 353 0.0 10.0 0.00 0.00 0.00 99 1020.3
20260831140339 77 2 3.0 3.0 0.00 0.00 0.00 100 1020.3
20260831135838 77 340 2.0 3.0 0.00 0.00 0.00 100 1020.3
20260831135338 77 16 5.0 5.0 0.00 0.00 0.00 100 1020.3
20260831134338 76 32 5.0 10.0 0.00 0.00 0.00 100 1020.3
20260831133839 77 347 2.0 5.0 0.00 0.00 0.00 100 1020.3
20260831133338 76 344 2.0 3.0 0.00 0.00 0.00 100 1020.3
20260831132838 76 5 2.0 7.0 0.00 0.00 0.00 100 1020.3
20260831132339 76 3 5.0 7.0 0.00 0.00 0.00 100 1020.3
20260831131839 76 21 3.0 9.0 0.00 0.00 0.00 100 1020.3
20260831131338 75 40 5.0 9.0 0.00 0.00 0.00 100 1020.0
20260831130839 75 360 2.0 5.0 0.00 0.00 0.00 100 1020.0
20260831130338 75 38 3.0 5.0 0.00 0.00 0.00 100 1020.0
20260831125839 75 41 2.0 5.0 0.00 0.00 0.00 100 1020.0
20260831125340 75 14 5.0 7.0 0.00 0.00 0.00 100 1020.0
20260831124839 74 31 2.0 3.0 0.00 0.00 0.00 100 1020.0
20260831124338 74 355 0.0 2.0 0.00 0.00 0.00 100 1020.0
20260831123838 74 14 2.0 3.0 0.00 0.00 0.00 100 1020.0
20260831123339 74 28 3.0 3.0 0.00 0.00 0.00 100 1020.0
20260831122838 73 23 3.0 5.0 0.00 0.00 0.00 100 1020.0
20260831122339 73 22 3.0 3.0 0.00 0.00 0.00 100 1020.0
20260831121839 73 1 0.0 2.0 0.00 0.00 0.00 100 1020.0
20260831121339 73 357 0.0 0.0 0.00 0.00 0.00 100 1020.0
20260831120839 72 330 0.0 0.0 0.00 0.00 0.00 100 1020.0
20260831120339 72 330 0.0 0.0 0.00 0.00 0.00 100 1020.0
20260831115838 72 331 0.0 0.0 0.00 0.00 0.00 100 1020.0
20260831115338 72 350 0.0 0.0 0.00 0.00 0.00 100 1020.0
20260831114839 72 348 0.0 0.0 0.00 0.00 0.00 100 1020.0
20260831114338 71 348 0.0 0.0 0.00 0.00 0.00 100 1020.0
20260831113839 71 356 0.0 0.0 0.00 0.00 0.00 100 1020.0
20260831113339 71 337 0.0 0.0 0.00 0.00 0.00 100 1020.0
20260831112838 71 328 0.0 0.0 0.00 0.00 0.00 100 1020.0
20260831112339 71 328 0.0 0.0 0.00 0.00 0.00 100 1020.0
20260831111838 71 328 0.0 0.0 0.00 0.00 0.00 100 1020.0
20260831111338 71 328 0.0 0.0 0.00 0.00 0.00 100 1020.0
20260831110838 71 327 0.0 0.0 0.00 0.00 0.00 100 1020.0
20260831110338 71 326 0.0 0.0 0.00 0.00 0.00 100 1020.0
20260831105838 71 311 0.0 0.0 0.00 0.00 0.00 100 1019.6
20260831105339 71 311 0.0 0.0 0.00 0.00 0.00 100 1019.6
20260831104839 71 344 0.0 0.0 0.00 0.00 0.00 100 1019.6
20260831104338 71 342 0.0 0.0 0.00 0.00 0.00 100 1019.6
20260831103838 71 342 0.0 0.0 0.00 0.00 0.00 100 1019.6
20260831103338 71 343 0.0 0.0 0.00 0.00 0.00 100 1019.6
20260831102838 71 352 0.0 0.0 0.00 0.00 0.00 100 1019.6
20260831102338 71 353 0.0 0.0 0.00 0.00 0.00 100 1019.6
20260831101839 71 352 0.0 0.0 0.00 0.00 0.00 100 1019.6
20260831101338 71 352 0.0 0.0 0.00 0.00 0.00 100 1019.6
20260831100839 71 354 0.0 0.0 0.00 0.00 0.00 100 1019.6
20260831100339 71 354 0.0 0.0 0.00 0.00 0.00 100 1019.6
20260831095839 72 354 0.0 0.0 0.00 0.00 0.00 100 1019.6
20260831095338 71 2 0.0 0.0 0.00 0.00 0.00 100 1019.6
20260831094838 71 349 0.0 0.0 0.00 0.00 0.00 100 1019.6
20260831094338 71 352 0.0 0.0 0.00 0.00 0.00 100 1019.6
20260831093840 72 358 0.0 0.0 0.00 0.00 0.00 100 1019.6
20260831093338 72 10 0.0 0.0 0.00 0.00 0.00 100 1019.6
20260831092838 72 357 0.0 0.0 0.00 0.00 0.00 100 1019.3
20260831092338 72 16 0.0 0.0 0.00 0.00 0.00 100 1019.3
20260831091839 72 354 0.0 0.0 0.00 0.00 0.00 100 1019.3
20260831091338 72 353 0.0 0.0 0.00 0.00 0.00 100 1019.3
20260831090839 72 357 0.0 0.0 0.00 0.00 0.00 100 1019.3
20260831090339 72 342 2.0 2.0 0.00 0.00 0.00 100 1019.3
20260831085838 72 360 2.0 2.0 0.00 0.00 0.00 100 1019.3
20260831085339 72 348 0.0 0.0 0.00 0.00 0.00 100 1019.3
20260831084838 72 347 0.0 0.0 0.00 0.00 0.00 100 1019.3
20260831084339 72 350 0.0 0.0 0.00 0.00 0.00 100 1019.3
20260831083839 72 341 0.0 0.0 0.00 0.00 0.00 100 1019.3
20260831083338 72 343 0.0 0.0 0.00 0.00 0.00 100 1019.3
20260831082838 72 324 0.0 0.0 0.00 0.00 0.00 100 1019.0
20260831082340 72 329 0.0 0.0 0.00 0.00 0.00 100 1019.3
20260831081838 72 328 0.0 0.0 0.00 0.00 0.00 100 1019.3
20260831081338 72 321 0.0 0.0 0.00 0.00 0.00 100 1019.3
20260831080838 72 316 0.0 0.0 0.00 0.00 0.00 100 1019.3
20260831080338 72 320 0.0 0.0 0.00 0.00 0.00 100 1019.0
20260831075839 72 318 0.0 0.0 0.00 0.00 0.00 100 1019.0
20260831075338 72 315 0.0 0.0 0.00 0.00 0.00 100 1019.0
20260831074838 72 313 0.0 0.0 0.00 0.00 0.00 100 1019.0
20260831074339 72 275 0.0 0.0 0.00 0.00 0.00 100 1019.3
20260831073838 72 288 0.0 0.0 0.00 0.00 0.00 100 1019.3
20260831073339 72 2 0.0 0.0 0.00 0.00 0.00 100 1019.3
20260831072838 72 2 0.0 0.0 0.00 0.00 0.00 100 1019.3
20260831072338 72 2 0.0 0.0 0.00 0.00 0.00 100 1019.3
20260831071839 72 2 0.0 0.0 0.00 0.00 0.00 100 1019.3
20260831071338 72 2 0.0 0.0 0.00 0.00 0.00 100 1019.3
20260831070838 72 3 0.0 0.0 0.00 0.00 0.00 100 1019.3
20260831070338 72 4 0.0 0.0 0.00 0.00 0.00 100 1019.3
20260831065838 72 3 0.0 0.0 0.00 0.00 0.00 100 1019.3
20260831065338 72 4 0.0 0.0 0.00 0.00 0.00 100 1019.6
20260831064838 73 5 0.0 0.0 0.00 0.00 0.00 100 1019.6
20260831064338 73 6 0.0 0.0 0.00 0.00 0.00 100 1019.6
20260831063838 73 6 0.0 0.0 0.00 0.00 0.00 100 1019.6
20260831063339 73 6 0.0 0.0 0.00 0.00 0.00 100 1020.0
20260831062838 73 7 0.0 0.0 0.00 0.00 0.00 100 1020.0
20260831062339 73 14 0.0 0.0 0.00 0.00 0.00 100 1020.0
20260831061838 73 349 0.0 0.0 0.00 0.00 0.00 100 1020.0
20260831061340 73 11 2.0 2.0 0.00 0.00 0.00 100 1020.0
20260831060839 73 339 0.0 0.0 0.00 0.00 0.00 100 1020.0
20260831060339 73 338 0.0 0.0 0.00 0.00 0.00 100 1020.0
20260831055839 73 339 0.0 0.0 0.00 0.00 0.00 100 1020.0
20260831055338 73 342 0.0 0.0 0.00 0.00 0.00 100 1020.0
20260831054839 73 341 0.0 0.0 0.00 0.00 0.00 100 1020.0
20260831054339 73 346 0.0 0.0 0.00 0.00 0.00 100 1020.0
20260831053838 73 345 0.0 0.0 0.00 0.00 0.00 100 1020.3
20260831053339 73 347 0.0 0.0 0.00 0.00 0.00 100 1020.3
20260831052838 73 347 0.0 0.0 0.00 0.00 0.00 100 1020.3
20260831052339 73 348 0.0 0.0 0.00 0.00 0.00 100 1020.3
20260831051838 73 350 0.0 0.0 0.00 0.00 0.00 100 1020.3
20260831051339 73 350 0.0 0.0 0.00 0.00 0.00 100 1020.3
20260831050839 73 351 0.0 0.0 0.00 0.00 0.00 100 1020.7
20260831050338 73 339 0.0 0.0 0.00 0.00 0.00 100 1020.3
20260831045838 74 341 0.0 0.0 0.00 0.00 0.00 100 1020.3
20260831045339 74 356 0.0 2.0 0.00 0.00 0.00 100 1020.3
20260831044838 73 14 2.0 2.0 0.00 0.00 0.00 100 1020.3
20260831044339 73 309 0.0 0.0 0.00 0.00 0.00 100 1020.0
20260831043839 74 272 0.0 0.0 0.00 0.00 0.00 100 1020.0
20260831043338 74 278 0.0 0.0 0.00 0.00 0.00 100 1020.0
20260831042838 74 278 0.0 0.0 0.00 0.00 0.00 100 1020.3
20260831042338 74 274 0.0 0.0 0.00 0.00 0.00 100 1020.3
20260831041838 74 277 0.0 0.0 0.00 0.00 0.00 100 1020.3
20260831041338 74 280 0.0 0.0 0.00 0.00 0.00 100 1020.3
20260831040839 74 280 0.0 0.0 0.00 0.00 0.00 100 1020.3
20260831040339 74 278 0.0 0.0 0.00 0.00 0.00 100 1020.7
20260831035838 74 279 0.0 0.0 0.00 0.00 2.15 100 1020.7
20260831035338 74 294 0.0 0.0 0.00 0.00 2.15 100 1020.7
20260831034838 74 293 0.0 0.0 0.00 0.00 2.15 100 1020.7
20260831034338 74 294 0.0 0.0 0.00 0.00 2.15 100 1020.7
20260831033838 74 346 0.0 0.0 0.00 0.00 2.15 100 1020.7
20260831033338 74 346 0.0 0.0 0.00 0.00 2.15 100 1020.7
20260831032838 74 338 0.0 0.0 0.00 0.00 2.15 100 1020.7
20260831032338 74 331 0.0 0.0 0.00 0.00 2.15 100 1020.7
20260831031839 74 325 2.0 2.0 0.00 0.00 2.15 100 1020.7
20260831031338 74 351 0.0 0.0 0.00 0.00 2.15 100 1020.7
20260831030838 74 356 0.0 0.0 0.00 0.00 2.15 100 1020.7
20260831030340 74 347 0.0 0.0 0.00 0.00 2.15 100 1020.7
20260831025838 74 352 0.0 0.0 0.00 0.00 2.15 100 1020.7
20260831025338 74 343 0.0 0.0 0.00 0.00 2.15 100 1020.7
20260831024841 74 300 0.0 0.0 0.00 0.00 2.15 100 1020.3